Powrót do katalogu

STARLINK-37443

AktywnyŁącznośćSSO
NORAD 68824·PAYLOAD·🇺🇸 United States

Wystrzelony Apr 23, 2026 z Vandenberg Space Force Base

Loading…

Następne Przeloty (najbliższe 24 godziny)

TLE

ŚwieżeSource: CelesTrak SupGP

Epoka: Sep 15, 2026, 03:45 UTC

1 68824C 26089Y   26258.15673611 -.00150940  00000+0 -46855-2 0  2584
2 68824  97.2848 104.0565 0001877  90.4852 283.7200 15.33514420    11

Śledź STARLINK-37443 w czasie rzeczywistym z AllMySat

Download on the App Store